Weather in Sadovoye

Russia / Ulyanovsk Oblast     53°07′56″N   47°39′44″E
temp.,
°C
wind,
m/s
gust,
m/s
humid.,
%
clouds,
%
prec.,
mm/h
press.,
hPa
HPBL,
m
9 may, sun
sun901:00+12s2278100 0.0 101229
04:00+11se227711 0.0 101217
07:00+12ese237290 0.0 101281
10:00+15se31165100 0.0 1012459
13:00+21s71049100 0.0 10111533
16:00+22sse7114696 0.0 10112454
19:00+19sse4105568 0.0 1011372
22:00+16se2258100 0.0 101222
10 may, mon
mon1001:00+15nw1161100 0.0 101312
04:00+14nne3471100 0.0 101493
07:00+14e4967100 0.0 1015276
10:00+18ese4655100 0.0 1016525
13:00+22ese5741100 0.0 10171512
16:00+23e5639100 0.0 10172313
19:00+20ene41056100 0.0 1018285
22:00+18ne51160100 0.0 1019338
11 may, tue
tue1101:00+15ne61276100 0.0 1020330
04:00+14ne51178100 0.0 1022271
07:00+15ene51170100 0.0 1023357
10:00+19e5853100 0.0 1024658
13:00+23e78385 0.0 10241982
16:00+24e79376 0.0 10242265
19:00+20ene61153100 0.0 1024559
22:00+18ene4106191 0.0 1025294
12 may, wed
wed1201:00+17e41157100 0.0 1025346
04:00+15e5136468 0.0 1025318
07:00+16e5126516 0.0 1026428
10:00+20ese71047100 0.0 1026896
13:00+23ese793776 0.0 10261759
16:00+23ese793695 0.0 10261913
19:00+20se3753100 0.0 1026349
22:00+17ese2858100 0.0 1026219
13 may, thu
thu1301:00+16e4115698 0.0 1025281
04:00+14e3116026 0.0 1025249
07:00+15e5125966 0.0 1025394
10:00+18ese6105260 0.0 1024672
13:00+20ese4856100 0.0 1024605
16:00+19ese595489 0.1 1024624
19:00+20ese5105160 0.0 1023522
22:00+18ese3125776 0.0 1023312